Miscellaneous Local Product
Issued by NWS North Platte, NE

Home | Current Version | Previous Version | Graphics & Text | Print | Product List | Glossary On
Versions: 1 2 3 4 5 6 7 8 9 10 11 12 13 14 15 16 17 18 19 20 21 22 23 24 25 26 27 28 29 30 31 32 33 34 35 36 37 38 39 40 41 42 43 44 45 46 47 48 49 50
000
AXUS43 KLBF 262010
MISLBF


WESTERN AND NORTH CENTRAL NEBRASKA HOURLY WEATHER ROUNDUP
NATIONAL WEATHER SERVICE NORTH PLATTE NE
200 PM CST FRI DEC 26 2014

***STATIONS NOT REPORTING VARIABLES SUCH AS SKY/WEATHER OR
PRESSURE ARE PROVIDED BY THE NEBRASKA DEPARTMENT OF
ROADS...RAWS...AND APRS NETWORKS...AND ARE NOT UNDER
NATIONAL WEATHER SERVICE QUALITY CONTROL***

...OBSERVATIONS IN AND NEAR THE EASTERN PANHANDLE OF NEBRASKA...

CITY           SKY/WX    TMP DP  RH WIND       PRES   REMARKS
PINE RIDGE     CLOUDY    20  12  71 N13       30.05F WCI   7
CHADRON        CLOUDY    21  15  78 NE8       30.06F WCI  11
ALLIANCE       LGT SNOW  18  14  84 N14       30.00F FOG     WCI   4
SIDNEY         LGT SNOW  19  14  81 NE14      29.98F VSB 1   WCI   6
WHITECLAY        N/A     18  11  73 NE9         N/A  WCI   7
CRESCENT LAKE    N/A     18  14  83 N10         N/A  WCI   6
LISCO            N/A     23  14  69 NW12        N/A  WCI  11
BIG SPRINGS      N/A     23  20  89 N6          N/A  WCI  16
$$

...OBSERVATIONS IN NORTH CENTRAL NEBRASKA...

CITY           SKY/WX    TMP DP  RH WIND       PRES   REMARKS
VALENTINE      CLOUDY    22  17  81 N12       30.05S WCI  10
THEDFORD       LGT SNOW  23  21  91 N14G20    30.02S VSB 1   WCI  11
AINSWORTH      LGT SNOW  21  18  88 N20       30.04S WCI   6
O`NEILL        LGT SNOW  24  23  95 N12G18    30.04F WCI  13
ORD            CLOUDY    26  18  71 N18       30.00F WCI  13
BROKEN BOW     CLOUDY    25  19  78 N15G24    29.99F WCI  13
BROWNLEE         N/A     20  17  88 NE16        N/A  WCI   6
SPRINGVIEW       N/A     22  19  86 NW8         N/A  WCI  13
BREWSTER         N/A     27  26  96 N12         N/A  WCI  16
ROSE             N/A     29  28  97 N5          N/A  WCI  24
SARGENT          N/A     25  20  82 N7G16       N/A  WCI  17
COMSTOCK         N/A     30  23  74 N14         N/A  WCI  20
CHAMBERS         N/A     26  19  74 NE12        N/A  WCI  16
EWING            N/A     25  23  91 CALM        N/A
$$

...OBSERVATIONS IN SOUTHWEST NEBRASKA AND FAR NORTHEAST COLORADO...

CITY           SKY/WX    TMP DP  RH WIND       PRES   REMARKS
WRAY           LGT SNOW  24  21  87 N14       29.97F VSB 1   WCI  12
HOLYOKE        LGT SNOW  25  19  80 N17       29.99F VSB 3/4 WCI  11
IMPERIAL       SNOW      22  18  85 N15       29.99F VSB 1/2 WCI   9
OGALLALA       LGT SNOW  23  19  85 N13       30.01F WCI  11
NORTH PLATTE   LGT SNOW  23  20  88 N9        30.01F VSB 1   WCI  13
MCCOOK         LGT SNOW  26  20  77 N16       29.98F WCI  14
LEXINGTON      CLOUDY    28  20  71 N14G21    30.00S WCI  17
PAXTON           N/A     22  20  91 N9          N/A  WCI  12
BRADY            N/A     23  19  85 CALM        N/A
GOTHENBURG       N/A     23  18  81 N10         N/A  WCI  12
CALLAWAY         N/A     23  21  93 NE14        N/A  WCI  11
$$

...NORTH PLATTE AREA...

CITY           SKY/WX    TMP DP  RH WIND       PRES   REMARKS
AIRPORT        LGT SNOW  23  20  88 N9        30.01F VSB 1   WCI  13
DOWNTOWN         N/A     22  19  89 N6          N/A  WCI  15
$$

...SOME WEATHER OBSERVATIONS FROM AROUND THE REGION...

CITY           SKY/WX    TMP DP  RH WIND       PRES   REMARKS
DENVER         LGT SNOW  18  13  80 N7        29.91F WCI   9
LARAMIE        CLOUDY    10   5  80 NW5       29.80F WCI   2
CHEYENNE       CLOUDY    15   7  70 N8        29.87S WCI   4
SCOTTSBLUFF    LGT SNOW  22  17  81 CALM      30.01F
RAPID CITY     FLURRIES  19  13  77 NE8       30.07F WCI   9
PIERRE         LGT SNOW  22  18  85 N14       30.12F FOG     WCI   9
WINNER         CLOUDY    23  18  81 N20       30.08S WCI   8
SIOUX FALLS    CLOUDY    28  22  78 N20       30.01F WCI  15
OMAHA          CLOUDY    34  30  85 N12       29.97R WCI  25
GRAND ISLAND   CLOUDY    29  21  72 N16       30.00S WCI  17
KANSAS CITY    CLOUDY    47  37  68 NW6       29.90S
WICHITA        CLOUDY    39  32  76 N12       29.91F WCI  32
HAYS           CLOUDY    28  19  69 N12       29.97R WCI  18
LIBERAL        CLOUDY    30  23  74 N9        29.95R WCI  22
GOODLAND       LGT SNOW  23  19  85 N17       29.95R VSB 1   WCI   9
$$



USA.gov is the U.S. government's official web portal to all federal, state and local government web resources and services.